Regional Weather Roundup
Issued by NWS

Home | Current Version | Previous Version | Graphics & Text | Print | Product List | Glossary On
Versions: 1 2 3 4 5 6 7 8 9 10 11 12 13 14 15 16 17 18 19 20 21 22 23 24 25 26 27 28 29 30 31 32 33 34 35 36 37 38 39 40 41 42 43 44 45 46 47 48 49 50
000
ASUS43 KLSX 211807
RWRMO

WEATHER SUMMARY FOR MISSOURI
NATIONAL WEATHER SERVICE SPRINGFIELD MO
100 PM CDT TUE OCT 21 2014

NOTE: "FAIR" INDICATES FEW OR NO CLOUDS BELOW 12,000 FEET WITH NO
       SIGNIFICANT WEATHER AND/OR OBSTRUCTIONS TO VISIBILITY.
       CURRENT SKY AND/OR WEATHER CONDITIONS ARE NOT AVAILABLE FOR
       CHILLICOTHE AND FARMINGTON.

MOZ001>031-035>038-043-044-053-054-211900-
...NORTHERN AND WESTERN MISSOURI...

CITY           SKY/WX    TMP DP  RH WIND       PRES   REMARKS
KANSAS CTY INT SUNNY     70  47  43 E3        30.12F
6HR MIN TEMP:  46; 6HR MAX TEMP:  70;

KANSAS C DTWN  SUNNY     71  44  37 VRB3      30.12F
6HR MIN TEMP:  45; 6HR MAX TEMP:  71;

LEE`S SUMMIT   SUNNY     70  44  39 VRB6      30.13F
6HR MIN TEMP:  47; 6HR MAX TEMP:  70;

ST JOSEPH        N/A    N/A N/A N/A MISG      30.12F
6HR MIN TEMP:  34; 6HR MAX TEMP:  69;

CHILLICOTHE      N/A     70  49  47 VRB3      30.13F
6HR MIN TEMP:  40; 6HR MAX TEMP:  70;

KIRKSVILLE     SUNNY     64  47  53 E8        30.15F
6HR MIN TEMP:  39; 6HR MAX TEMP:  64;


$$
MOZ066>068-077>081-088>096-101>105-211900-
...SOUTHWEST MISSOURI...

CITY           SKY/WX    TMP DP  RH WIND       PRES   REMARKS
SPRINGFIELD    SUNNY     72  42  34 NW3       30.13F
6HR MIN TEMP:  45; 6HR MAX TEMP:  72;

JOPLIN         SUNNY     73  49  42 CALM      30.12F
6HR MIN TEMP:  48; 6HR MAX TEMP:  73;


$$
MOZ032>034-039>042-045>050-055>058-069>072-211900-
...CENTRAL MISSOURI...

CITY           SKY/WX    TMP DP  RH WIND       PRES   REMARKS
COLUMBIA       SUNNY     71  45  39 N8        30.13F
6HR MIN TEMP:  46; 6HR MAX TEMP:  71;

JEFFERSON CITY SUNNY     69  46  43 W5        30.12F
6HR MIN TEMP:  41; 6HR MAX TEMP:  70;

ROLLA          SUNNY     68  45  43 VRB5      30.11F
6HR MIN TEMP:  44; 6HR MAX TEMP:  69;

SEDALIA        SUNNY     71  44  37 SW5       30.14F
6HR MIN TEMP:  47; 6HR MAX TEMP:  72;

WHITEMAN AFB   SUNNY     70  45  41 CALM      30.13F
OSAGE BEACH    SUNNY     70  46  43 W6        30.13F

$$
MOZ051-052-059>065-211900-
...EAST CENTRAL MISSOURI...

CITY           SKY/WX    TMP DP  RH WIND       PRES   REMARKS
ST LOUIS INTL  SUNNY     65  46  50 NE12      30.13F
6HR MIN TEMP:  48; 6HR MAX TEMP:  66;

SPIRIT OF STL  SUNNY     65  48  54 NE8       30.13F
6HR MIN TEMP:  40; 6HR MAX TEMP:  65;

ST CHARLES     SUNNY     64  46  52 NE10      30.13F
6HR MIN TEMP:  39; 6HR MAX TEMP:  65;


$$
MOZ072>076-082>087-097>100-106>115-211900-
...SOUTH CENTRAL AND SOUTHEAST MISSOURI...

CITY           SKY/WX    TMP DP  RH WIND       PRES   REMARKS
CAPE GIRARDEAU SUNNY     71  46  40 N12       30.09F
6HR MIN TEMP:  40; 6HR MAX TEMP:  71;

FARMINGTON     SUNNY     68  45  42 W9        30.13F
6HR MIN TEMP:  39; 6HR MAX TEMP:  68;

POPLAR BLUFF   SUNNY     74  44  34 NW13      30.08F
6HR MIN TEMP:  56; 6HR MAX TEMP:  74;

WEST PLAINS    SUNNY     70  45  40 VRB6      30.13F
6HR MIN TEMP:  42; 6HR MAX TEMP:  71;


$$



USA.gov is the U.S. government's official web portal to all federal, state and local government web resources and services.